Flag for U.S.A. Weather past 2 weeks in Spokane, Washington, U.S.A.

Now
31 °F

Low clouds.


Feels Like: 27 °F
Forecast: 29 / 38 °F
Wind: 3 mph from Southwest

Location: Felts Field

Current Time: Jan 30, 2015 at 8:25:54 PM

Latest Report: Jan 30, 2015 at 6:53 PM


Visibility: 7 mi

Pressure: 30.34 "Hg

Humidity: 92%

Dew point: 29 °F

Location of SpokaneLocation

Historic Weather in Spokane — Graph

°F

Spokane temperature yesterday

Maximum temperature yesterday: 40 °F (at 11:53 AM)
Minimum temperature yesterday: 28 °F (at 8:53 PM)
Average temperature yesterday: 33 °F

Past Weeks' High & Low Weather Summary

 TemperatureHumidityPressure
High56 °F (Jan 25, 1:53 PM)97% (Jan 18, 2:53 AM)30.57 "Hg (Jan 18, 2:53 AM)
Low26 °F (Jan 22, 1:53 AM)62% (Jan 25, 1:53 PM)29.82 "Hg (Jan 18, 3:53 AM)
Average36 °F87%30.29 "Hg
* Reported Jan 15 6:53 PM — Jan 30 6:53 PM, Spokane, Weather by CustomWeather, © 2014

Note: Actual official high and low records may vary slightly from our data, if they occured in-between our weather recording intervals... More about our weather records

Advertising

Spokane weather history for previous 24 hours

 ConditionsComfort  
Time TempWeatherWind HumidityBarometerVisibility
6:53 PM
Jan 30
31 °FLow clouds.3 mph92%30.34 "Hg7 mi
5:53 PM32 °FIce fog.3 mph92%30.37 "Hg6 mi
4:53 PM32 °FIce fog.No wind88%30.36 "Hg4 mi
3:53 PM32 °FIce fog.No wind88%30.36 "Hg3 mi
2:53 PM32 °FIce fog.3 mph88%30.36 "Hg4 mi
1:53 PM31 °FIce fog.No wind89%30.39 "Hg3 mi
12:53 PM32 °FIce fog.No wind88%30.40 "Hg5 mi
11:53 AM31 °FLow clouds.3 mph89%30.44 "Hg7 mi
10:53 AM31 °FLow clouds.No wind92%30.46 "Hg10 mi
9:53 AM31 °FLow clouds.No wind89%30.46 "Hg7 mi
8:53 AM31 °FLow clouds.3 mph92%30.46 "Hg7 mi
7:53 AM31 °FLow clouds.5 mph89%30.45 "Hg8 mi
6:53 AM31 °FLow clouds.No wind89%30.44 "Hg10 mi
5:53 AM31 °FLow clouds.No wind89%30.44 "Hg7 mi
4:53 AM30 °FIce fog.5 mph92%30.45 "Hg6 mi
4:02 AM31 °FIce fog.No wind92%30.38 "Hg5 mi
3:53 AM31 °FIce fog.No wind92%30.43 "Hg4 mi
2:53 AM31 °FLow clouds.No wind92%30.43 "Hg8 mi
1:59 AM30 °FIce fog.No wind92%30.38 "Hg2 mi
12:53 AM29 °FIce fog.No wind96%30.44 "Hg0 mi
11:59 PM
Jan 29
29 °FIce fog.No wind93%30.40 "Hg1 mi
10:53 PM28 °FIce fog.3 mph93%30.45 "Hg0 mi
9:53 PM29 °FIce fog.No wind89%30.45 "Hg0 mi
8:53 PM28 °FIce fog.No wind96%30.45 "Hg1 mi
Weather by CustomWeather, © 2014

See weather overviewHow to use our weather pages